Regional Weather Roundup
Issued by NWS

Home | Current Version | Previous Version | Graphics & Text | Print | Product List | Glossary On
Versions: 1 2 3 4 5 6 7 8 9 10 11 12 13 14 15 16 17 18 19 20 21 22 23 24 25 26 27 28 29 30 31 32 33 34 35 36 37 38 39 40 41 42 43 44 45 46 47 48 49 50
000
ASUS43 KFSD 180502
RWRSD

WEATHER ROUNDUP FOR SOUTH DAKOTA
NATIONAL WEATHER SERVICE SIOUX FALLS SD
1100 PM CST SUN DEC 17 2017

NOTE: "FAIR" INDICATES FEW OR NO CLOUDS BELOW 12,000 FEET WITH NO
SIGNIFICANT WEATHER AND/OR OBSTRUCTIONS TO VISIBILITY.


SDZ001>005-009-010-012>017-180600-
NORTHWEST AND NORTH CENTRAL SOUTH DAKOTA

CITY           SKY/WX    TMP DP  RH WIND       PRES   REMARKS
BUFFALO          N/A     31  21  66 W13       29.73R WCI  21
FAITH            N/A     32  23  69 W12       29.80S WCI  23
MOBRIDGE       CLOUDY    32  27  81 S5        29.76F WCI  27
$$

SDZ012>016-024>037-041>051-057-063-072>074-180600-
SOUTHWEST AND SOUTH CENTRAL SOUTH DAKOTA

CITY           SKY/WX    TMP DP  RH WIND       PRES   REMARKS
RAPID CTY ARPT CLOUDY    24  15  68 W8        29.86S WCI  15
PIERRE         CLOUDY    31  28  89 SW7       29.82F WCI  24
CUSTER         CLOUDY    26  14  60 W7        29.83F WCI  18
ELLSWORTH AFB  CLOUDY    26  17  67 W7        29.84F WCI  19
PHILIP         CLOUDY    26  24  92 W9        29.85S WCI  17
PINE RIDGE     CLOUDY    29  22  75 SW3       29.90R
SPEARFISH      FAIR      34  18  51 W12G21    29.83S WCI  25
WINNER         FAIR      34  28  79 S14       29.85S WCI  25
$$

SDZ004>011-016>023-039-040-180600-
NORTHEAST SOUTH DAKOTA

CITY           SKY/WX    TMP DP  RH WIND       PRES   REMARKS
ABERDEEN       PTCLDY    31  29  92 S8        29.83F WCI  23
WATERTOWN      CLOUDY    32  30  92 S9        29.84F WCI  24
BROOKINGS      CLOUDY    33  26  75 S8        29.89S WCI  26
SISSETON         N/A     38  32  79 SW12      29.83F
$$

SDZ017-020-022-023-036>040-048>070-180600-
SOUTHEAST SOUTH DAKOTA

CITY           SKY/WX    TMP DP  RH WIND       PRES   REMARKS
SIOUX FALLS    CLOUDY    33  29  85 SW3       29.92S
HURON          CLOUDY    35  29  78 MISG      29.87F
CHAMBERLAIN    CLOUDY    30  29  96 S6        29.87S WCI  24
MITCHELL       CLOUDY    36  28  73 S10       29.91S
YANKTON        PTCLDY    25  23  92 S3        29.94F
$$

ABBREVIATIONS USED IN REMARKS
   TC - TEMPERATURE IN CELSIUS
  WCI - WIND CHILL INDEX
   HX - HEAT INDEX
  VSB - VISIBILITY




USA.gov is the U.S. government's official web portal to all federal, state and local government web resources and services.